Sigfox identifier Datetime Temperature Humidity SNR
003AB629 2019-04-23 14:50:34 16 31 18
003AB629 2019-04-23 14:17:34 15.9 31 18
003AB629 2019-04-23 13:44:34 15.8 31 17.5
003AB629 2019-04-23 13:11:32 15.8 31 17.3
003AB629 2019-04-23 12:38:29 15.7 31 17.2
003AB629 2019-04-23 12:05:28 15.8 31 16.9
003AB629 2019-04-23 11:32:26 15.7 31 16.7
003AB629 2019-04-23 10:59:23 15.7 31 17
003AB629 2019-04-23 10:26:21 15.7 31 16.8
003AB629 2019-04-23 09:53:19 15.7 31 16.4
003AB629 2019-04-23 09:20:17 15.6 30 16.3
003AB629 2019-04-23 08:47:14 15.6 30 16.5
003AB629 2019-04-23 08:14:13 15.6 30 16.5
003AB629 2019-04-23 07:41:13 15.7 30 16.6
003AB629 2019-04-23 07:08:12 15.7 30 16.8
003AB629 2019-04-23 06:35:11 15.6 30 16.8
003AB629 2019-04-23 06:02:11 15.7 30 16.8
003AB629 2019-04-23 05:29:07 15.7 30 16.9
003AB629 2019-04-23 04:56:04 15.7 30 17.1
003AB629 2019-04-23 04:23:01 15.7 30 17.2
003AB629 2019-04-23 03:49:59 15.8 30 17.4
003AB629 2019-04-23 03:16:57 15.8 30 17.4
003AB629 2019-04-23 02:43:54 15.8 30 17.4
003AB629 2019-04-23 02:10:52 15.8 30 17.6
003AB629 2019-04-23 01:37:50 15.8 30 17.7
003AB629 2019-04-23 01:04:48 15.8 30 17.7
003AB629 2019-04-23 00:31:46 15.8 30 17.6
003AB629 2019-04-22 23:58:43 15.8 30 17.7
003AB629 2019-04-22 23:25:41 15.8 30 17.8
003AB629 2019-04-22 22:52:39 15.8 30 17.9
003AB629 2019-04-22 22:19:38 15.9 30 17.8
003AB629 2019-04-22 21:46:36 15.9 30 17.7
003AB629 2019-04-22 21:13:34 16 30 17.5
003AB629 2019-04-22 20:40:32 16 30 17.3
003AB629 2019-04-22 20:07:30 15.9 30 17.3
003AB629 2019-04-22 19:34:27 16 30 17.2
003AB629 2019-04-22 19:01:25 16 30 17
003AB629 2019-04-22 18:28:22 15.8 30 17.1
003AB629 2019-04-22 17:55:20 15.9 30 17.1
003AB629 2019-04-22 17:22:18 15.8 30 17
003AB629 2019-04-22 16:49:16 15.8 30 16.9
003AB629 2019-04-22 16:16:14 15.8 30 16.9
003AB629 2019-04-22 15:43:13 15.7 30 16.9
003AB629 2019-04-22 15:10:12 15.7 30 16.8
003AB629 2019-04-22 14:37:11 15.8 30 16.7
003AB629 2019-04-22 14:04:09 15.8 30 16.6
003AB629 2019-04-22 13:31:08 15.7 30 16.6
003AB629 2019-04-22 12:58:07 15.7 30 16.5
003AB629 2019-04-22 12:25:07 15.7 30 16.3
003AB629 2019-04-22 11:52:06 15.7 30 16.1
003AB629 2019-04-22 11:19:04 15.7 30 16.1
003AB629 2019-04-22 10:46:05 15.6 30 16
003AB629 2019-04-22 10:13:01 15.6 30 15.9
003AB629 2019-04-22 09:40:00 15.6 30 15.8
003AB629 2019-04-22 09:06:58 15.6 30 16
003AB629 2019-04-22 08:34:00 15.6 29 15.9
003AB629 2019-04-22 08:00:57 15.6 29 16
003AB629 2019-04-22 07:27:56 15.7 29 16.1
003AB629 2019-04-22 06:54:54 15.6 29 16.2
003AB629 2019-04-22 06:21:53 15.5 29 16.3
003AB629 2019-04-22 05:48:52 15.6 29 16.4
003AB629 2019-04-22 05:15:49 15.6 29 16.6
003AB629 2019-04-22 04:42:47 15.6 29 16.8
003AB629 2019-04-22 04:09:45 15.6 29 16.8
003AB629 2019-04-22 03:36:43 15.6 29 16.9
003AB629 2019-04-22 03:03:41 15.6 29 17
003AB629 2019-04-22 02:30:39 15.6 29 16.9
003AB629 2019-04-22 01:57:37 15.6 29 17
003AB629 2019-04-22 01:24:36 15.6 29 17.1
003AB629 2019-04-22 00:51:34 15.6 29 17.1
003AB629 2019-04-21 23:45:32 15.6 29 17.2
003AB629 2019-04-21 23:12:31 15.6 29 17.1
003AB629 2019-04-21 22:39:30 15.6 29 17.2
003AB629 2019-04-21 22:06:30 15.5 29 17.1
003AB629 2019-04-21 21:33:28 15.5 29 17.1
003AB629 2019-04-21 21:00:26 15.6 29 17.1
003AB629 2019-04-21 20:27:24 15.6 29 17.2
003AB629 2019-04-21 19:54:22 15.5 29 17
003AB629 2019-04-21 19:21:21 15.5 29 17
003AB629 2019-04-21 18:48:18 15.6 29 16.9
003AB629 2019-04-21 18:15:18 15.5 29 16.9
003AB629 2019-04-21 17:42:12 15.5 29 16.8
003AB629 2019-04-21 17:09:09 15.5 29 16.9
003AB629 2019-04-21 16:36:08 15.6 29 16.8
003AB629 2019-04-21 16:03:05 15.5 29 16.7
003AB629 2019-04-21 15:30:04 15.6 29 16.6
003AB629 2019-04-21 14:57:04 15.6 29 16.4
003AB629 2019-04-21 14:23:59 15.6 29 16.2
003AB629 2019-04-21 13:50:58 15.5 29 16
003AB629 2019-04-21 13:17:54 15.5 29 15.9
003AB629 2019-04-21 12:44:51 15.6 28 15.7
003AB629 2019-04-21 12:11:49 15.6 28 15.7
003AB629 2019-04-21 11:38:47 15.6 28 15.5
003AB629 2019-04-21 11:05:45 15.6 28 15.3
003AB629 2019-04-21 10:32:43 15.6 28 15.4
003AB629 2019-04-21 09:59:41 15.7 28 15.3
003AB629 2019-04-21 09:26:39 15.7 28 15.3
003AB629 2019-04-21 08:53:36 15.7 28 15.2
003AB629 2019-04-21 08:20:34 15.7 28 15.2
003AB629 2019-04-21 07:47:32 15.7 28 15.5
003AB629 2019-04-21 07:14:29 15.7 28 15.5
003AB629 2019-04-21 06:41:27 15.7 28 15.4
003AB629 2019-04-21 06:08:27 15.6 28 15.6
003AB629 2019-04-21 05:35:24 15.6 28 15.7
003AB629 2019-04-21 05:02:22 15.6 28 15.8
003AB629 2019-04-21 04:29:20 15.6 28 15.9
003AB629 2019-04-21 03:56:19 15.6 28 16.1
003AB629 2019-04-21 03:23:16 15.6 28 16.2
003AB629 2019-04-21 02:50:15 15.6 28 16.2
003AB629 2019-04-21 02:17:13 15.6 28 16.4
003AB629 2019-04-21 01:44:11 15.6 28 16.5
003AB629 2019-04-21 01:11:09 15.6 28 16.6
003AB629 2019-04-21 00:38:07 15.6 28 16.8
003AB629 2019-04-21 00:05:05 15.6 28 16.9
003AB629 2019-04-20 23:32:03 15.6 28 17.1
003AB629 2019-04-20 22:59:01 15.6 28 17.4
003AB629 2019-04-20 22:25:59 15.6 28 17.5
003AB629 2019-04-20 21:52:56 15.6 28 17.6
003AB629 2019-04-20 21:19:54 15.6 28 17.7
003AB629 2019-04-20 20:46:53 15.6 28 17.7
003AB629 2019-04-20 20:13:51 15.6 28 17.7
003AB629 2019-04-20 19:40:49 15.6 28 17.7
003AB629 2019-04-20 19:07:48 15.7 28 17.7
003AB629 2019-04-20 18:34:47 15.6 28 17.8
003AB629 2019-04-20 18:01:46 15.7 28 17.6
003AB629 2019-04-20 17:28:45 15.6 28 17.6
003AB629 2019-04-20 16:55:45 15.7 28 17.6
003AB629 2019-04-20 16:22:44 15.7 28 17.6
003AB629 2019-04-20 15:49:43 15.6 27 17.5
003AB629 2019-04-20 15:16:42 15.6 27 17.5
003AB629 2019-04-20 14:43:41 15.6 27 17.4
003AB629 2019-04-20 14:10:39 15.7 27 17.3
003AB629 2019-04-20 13:37:43 15.8 27 17.3
003AB629 2019-04-20 13:04:38 15.7 27 17.4
003AB629 2019-04-20 12:31:37 15.7 27 17.2
003AB629 2019-04-20 11:58:36 15.8 27 17.3
003AB629 2019-04-20 11:25:34 15.8 27 17.1
003AB629 2019-04-20 10:52:33 15.8 27 17
003AB629 2019-04-20 10:19:32 15.8 27 16.9
003AB629 2019-04-20 09:46:32 15.8 27 16.8
003AB629 2019-04-20 09:13:29 15.8 27 16.7
003AB629 2019-04-20 08:40:31 15.8 27 16.6
003AB629 2019-04-20 08:07:26 15.8 27 16.6
003AB629 2019-04-20 07:34:24 15.9 27 16.5
003AB629 2019-04-20 07:01:22 15.9 27 16.5
003AB629 2019-04-20 06:28:21 15.9 27 16.7
003AB629 2019-04-20 05:55:20 15.9 27 16.8
003AB629 2019-04-20 05:22:19 15.9 27 16.8
003AB629 2019-04-20 04:49:17 16 27 16.9
003AB629 2019-04-20 04:16:16 16 27 17
003AB629 2019-04-20 03:43:14 16 27 17.4
003AB629 2019-04-20 03:10:12 16 27 17.5
003AB629 2019-04-20 02:37:10 16 27 17.6
003AB629 2019-04-20 02:04:08 16 27 17.7
003AB629 2019-04-20 01:31:06 16 27 17.9
003AB629 2019-04-20 00:58:05 16.1 27 18.1
003AB629 2019-04-20 00:25:06 16.1 27 18.1
003AB629 2019-04-19 23:52:03 16.2 27 18.1
003AB629 2019-04-19 23:19:01 16.2 27 17.9
003AB629 2019-04-19 22:12:59 16.2 27 17.9
003AB629 2019-04-19 21:39:58 16.2 26 17.9
003AB629 2019-04-19 21:06:57 16.2 26 17.9
003AB629 2019-04-19 20:33:55 16.2 26 17.9
003AB629 2019-04-19 20:00:54 16.2 26 17.8
003AB629 2019-04-19 19:27:53 16.2 26 17.8
003AB629 2019-04-19 18:54:52 16.2 26 17.8
003AB629 2019-04-19 18:21:50 16.2 26 17.7
003AB629 2019-04-19 17:48:49 16.1 26 17.7
003AB629 2019-04-19 17:15:48 16.1 26 17.8
003AB629 2019-04-19 16:42:46 16.1 26 17.7
003AB629 2019-04-19 15:36:41 16 26 17.6
003AB629 2019-04-19 15:03:37 16 26 17.6
003AB629 2019-04-19 14:30:35 16 26 17.5
003AB629 2019-04-19 13:57:32 16 26 17.5
003AB629 2019-04-19 13:24:31 16 26 17.4
003AB629 2019-04-19 12:51:29 16 26 17.1
003AB629 2019-04-19 12:18:26 16 26 16.9
003AB629 2019-04-19 11:45:24 16 26 16.7
003AB629 2019-04-19 11:12:21 16 26 16.7
003AB629 2019-04-19 10:39:19 16 26 16.6
003AB629 2019-04-19 10:06:15 16 26 16.6
003AB629 2019-04-19 09:33:13 16 26 16.7
003AB629 2019-04-19 09:00:11 16 26 16.6
003AB629 2019-04-19 08:27:10 16.1 25 17.1
003AB629 2019-04-19 07:54:10 16.2 25 17.8
003AB629 2019-04-19 07:21:06 16.2 25 18.1
003AB629 2019-04-19 06:48:04 16.2 25 18.6
003AB629 2019-04-19 06:15:01 16.2 25 18.9
003AB629 2019-04-19 05:41:59 16.2 25 18.9
003AB629 2019-04-19 05:08:58 16.2 25 19.3
003AB629 2019-04-19 04:35:56 16.2 25 19.2
003AB629 2019-04-19 04:02:54 16.3 25 19.5
003AB629 2019-04-19 03:29:52 16.4 25 19.8
003AB629 2019-04-19 02:56:50 16.4 25 19.8
003AB629 2019-04-19 02:23:47 16.4 25 19.9
003AB629 2019-04-19 01:50:46 16.4 25 20
003AB629 2019-04-19 01:17:41 16.4 25 20
003AB629 2019-04-19 00:44:38 16.5 25 20.5
003AB629 2019-04-19 00:11:35 16.6 25 20.4
003AB629 2019-04-18 23:38:32 16.6 25 20.4
003AB629 2019-04-18 23:05:29 16.6 25 20.7
003AB629 2019-04-18 22:32:25 16.6 25 20.9
003AB629 2019-04-18 21:59:26 16.6 25 20.9
003AB629 2019-04-18 21:26:19 16.6 25 21.2
003AB629 2019-04-18 20:53:17 16.6 25 21.1
003AB629 2019-04-18 20:20:15 16.6 25 21.1
003AB629 2019-04-18 19:47:12 16.6 25 21.1
003AB629 2019-04-18 19:14:10 16.6 25 21
003AB629 2019-04-18 18:41:09 16.6 25 20.9
003AB629 2019-04-18 18:08:06 16.5 25 20.5
003AB629 2019-04-18 17:35:07 16.5 25 20.3
003AB629 2019-04-18 17:02:02 16.4 25 20
003AB629 2019-04-18 16:29:00 16.4 25 19.7
003AB629 2019-04-18 15:55:58 16.4 25 19.7
003AB629 2019-04-18 15:22:55 16.4 25 19.4
003AB629 2019-04-18 14:49:53 16.4 24 19.4
003AB629 2019-04-18 14:16:50 16.4 24 19.1
003AB629 2019-04-18 13:43:47 16.4 24 18.8
003AB629 2019-04-18 13:10:45 16.4 24 18.8
003AB629 2019-04-18 12:37:42 16.4 24 18.9
003AB629 2019-04-18 12:04:40 16.4 24 19
003AB629 2019-04-18 11:31:38 16.4 24 19.2
003AB629 2019-04-18 10:58:35 16.4 24 18.9
003AB629 2019-04-18 10:25:33 16.4 24 19.2
003AB629 2019-04-18 09:52:30 16.4 24 19.7
003AB629 2019-04-18 09:19:28 16.4 24 19.7
003AB629 2019-04-18 08:46:24 16.4 24 19.4
003AB629 2019-04-18 08:13:23 16.4 24 19.8
003AB629 2019-04-18 07:40:22 16.4 24 19.4
003AB629 2019-04-18 07:07:21 16.4 24 19.5
003AB629 2019-04-18 06:34:21 16.4 24 19.6
003AB629 2019-04-18 06:01:21 16.4 23 19.7
003AB629 2019-04-18 05:28:21 16.5 23 19.9
003AB629 2019-04-18 04:55:21 16.6 23 19.9
003AB629 2019-04-18 04:22:21 16.6 23 20.3
003AB629 2019-04-18 03:49:21 16.6 23 20.3
003AB629 2019-04-18 03:16:21 16.7 23 20.2
003AB629 2019-04-18 02:43:21 16.8 23 20.2
003AB629 2019-04-18 02:10:20 16.8 23 20.3
003AB629 2019-04-18 01:37:20 16.8 23 20.4
003AB629 2019-04-18 01:04:19 16.8 23 20.5
003AB629 2019-04-18 00:31:24 16.9 23 20.6
003AB629 2019-04-17 23:58:20 17 23 20.6
003AB629 2019-04-17 23:25:21 17 23 20.7
003AB629 2019-04-17 22:52:20 17 23 20.6
003AB629 2019-04-17 22:19:21 17 23 20.4
003AB629 2019-04-17 21:46:20 17.1 23 20.5
003AB629 2019-04-17 21:13:20 17 23 20.4
003AB629 2019-04-17 20:40:19 17 23 20.2
003AB629 2019-04-17 20:07:18 17 23 19.9
003AB629 2019-04-17 19:34:17 17.1 23 19.8
003AB629 2019-04-17 19:01:16 17 23 21.2
003AB629 2019-04-17 18:28:15 17.1 23 21.1
003AB629 2019-04-17 17:55:14 17.1 22 21.2
003AB629 2019-04-17 17:22:13 17.1 22 21.2
003AB629 2019-04-17 16:49:11 17.2 22 21.2
003AB629 2019-04-17 16:16:08 17.3 22 21.2
003AB629 2019-04-17 15:43:07 17.3 22 21.2
003AB629 2019-04-17 15:10:06 17.3 22 21.3
003AB629 2019-04-17 14:37:04 17.4 22 21.1
003AB629 2019-04-17 14:04:02 17.5 22 21.3
003AB629 2019-04-17 13:31:05 17.5 22 21.4
003AB629 2019-04-17 12:57:59 17.5 22 21.4
003AB629 2019-04-17 12:24:58 17.5 22 21.4
003AB629 2019-04-17 11:51:57 17.5 22 21.3
003AB629 2019-04-17 11:18:56 17.5 22 21.2
003AB629 2019-04-17 10:45:55 17.7 22 21.1
003AB629 2019-04-17 10:12:54 17.7 22 21
003AB629 2019-04-17 09:39:52 17.8 21 20.9
003AB629 2019-04-17 09:06:51 17.9 21 20.8
003AB629 2019-04-17 08:33:51 18 21 20.7
003AB629 2019-04-17 08:00:50 18.1 21 20.5
003AB629 2019-04-17 07:27:51 18.1 21 20.4
003AB629 2019-04-17 06:54:50 18.2 21 20.6
003AB629 2019-04-17 06:21:48 18.3 21 20.7
003AB629 2019-04-17 05:48:47 18.3 21 20.7
003AB629 2019-04-17 05:15:47 18.4 21 19
003AB629 2019-04-17 04:42:46 18.5 21 18.9
003AB629 2019-04-17 04:09:45 18.5 21 18.6
003AB629 2019-04-17 03:36:44 18.6 21 18.4
003AB629 2019-04-17 03:03:42 18.6 21 18.3
003AB629 2019-04-17 02:30:40 18.7 21 18.1
003AB629 2019-04-17 01:57:38 18.8 21 17.7
003AB629 2019-04-17 01:24:37 18.8 21 17.7
003AB629 2019-04-17 00:51:35 19 21 17.5
003AB629 2019-04-17 00:18:33 19 21 17.1
003AB629 2019-04-16 23:45:31 19.2 21 16.8
003AB629 2019-04-16 23:12:31 19.2 20 16.6
003AB629 2019-04-16 22:39:32 19.4 20 16.5
003AB629 2019-04-16 22:06:29 19.5 21 16.5
003AB629 2019-04-16 21:33:29 19.6 21 16.6
003AB629 2019-04-16 21:00:28 19.6 21 16.9
003AB629 2019-04-16 20:27:27 19.7 21 17.1
003AB629 2019-04-16 19:54:27 19.8 21 17.5
003AB629 2019-04-16 19:21:28 19.9 20 17.7
003AB629 2019-04-16 18:48:27 20.1 20 17.7
003AB629 2019-04-16 18:15:26 20.2 20 18
003AB629 2019-04-16 17:42:27 20.3 20 18.2
003AB629 2019-04-16 16:03:25 20.7 20 17.8
003AB629 2019-04-16 15:30:24 20.9 21 17.5
003AB629 2019-04-16 14:57:23 20.9 21 17.1
003AB629 2019-04-16 14:24:25 21 21 17.5
003AB629 2019-04-16 13:51:21 21 21 17.6
003AB629 2019-04-16 13:18:17 21 21 17.6
003AB629 2019-04-16 12:12:11 21 21 17.8
003AB629 2019-04-16 11:39:12 20.9 21 17.6
003AB629 2019-04-16 11:06:06 20.9 21 17.6
003AB629 2019-04-16 10:33:05 20.9 21 17.7
003AB629 2019-04-16 10:00:05 20.9 21 17.5
003AB629 2019-04-16 09:27:01 20.9 21 17.8
003AB629 2019-04-16 08:54:00 20.9 21 17.9
003AB629 2019-04-16 08:20:59 20.9 21 17.9
003AB629 2019-04-16 07:48:01 20.9 20 17.9
003AB629 2019-04-16 07:14:55 20.9 20 17.8
003AB629 2019-04-16 06:41:53 20.9 20 17.7
003AB629 2019-04-16 06:08:50 20.9 20 17.7
003AB629 2019-04-16 05:35:47 20.9 20 17.5
003AB629 2019-04-16 05:02:44 21 20 17.4
003AB629 2019-04-16 04:29:40 20.9 20 16.9
003AB629 2019-04-16 03:56:36 21 20 16.7
003AB629 2019-04-16 03:23:34 21.1 20 16.7
003AB629 2019-04-16 02:50:31 21 20 16.5
003AB629 2019-04-16 02:17:30 21 20 18.9
003AB629 2019-04-16 01:44:29 21.1 20 19.4
003AB629 2019-04-16 01:11:27 21 20 19.8
003AB629 2019-04-16 00:38:26 21.1 20 20.1
003AB629 2019-04-16 00:05:24 21.1 20 20.3
003AB629 2019-04-15 23:32:23 21.1 19 20.6
003AB629 2019-04-15 22:59:23 21.1 19 20.9
003AB629 2019-04-15 22:26:20 21.1 19 21.2
003AB629 2019-04-15 21:53:18 21.2 19 21.6
003AB629 2019-04-15 21:20:15 21.2 19 22
003AB629 2019-04-15 20:47:12 21.3 19 22.3
003AB629 2019-04-15 20:14:10 21.3 19 22.4
003AB629 2019-04-15 19:41:08 21.3 19 22.6
003AB629 2019-04-15 19:08:05 21.3 19 23.4
003AB629 2019-04-15 18:35:04 21.5 19 23.6
003AB629 2019-04-15 18:02:03 21.5 18 23.8
003AB629 2019-04-15 17:29:02 21.5 18 24
003AB629 2019-04-15 16:56:01 21.8 18 24.1
003AB629 2019-04-15 16:23:00 21.8 18 24.3
003AB629 2019-04-15 15:49:59 21.8 18 24.9
003AB629 2019-04-15 15:16:58 21.9 18 25
003AB629 2019-04-15 14:43:58 22 18 25.2
003AB629 2019-04-15 14:10:54 22.2 17 25.3
003AB629 2019-04-15 13:37:54 22.2 17 25.5
003AB629 2019-04-15 13:04:52 22.3 17 25.7
003AB629 2019-04-15 12:31:50 22.4 16 25.3
003AB629 2019-04-15 11:58:48 22.4 15 25.7
003AB629 2019-04-15 11:25:46 22.3 15 25.7
003AB629 2019-04-15 10:52:43 22.3 16 25.7
003AB629 2019-04-15 10:19:40 22.2 16 25.7
003AB629 2019-04-15 09:46:38 22.2 16 25.7
003AB629 2019-04-15 09:13:36 22.1 16 25.7
003AB629 2019-04-15 08:40:34 22 16 25.7
003AB629 2019-04-15 08:07:31 22 16 25.7
003AB629 2019-04-15 07:34:27 21.9 16 25.5
003AB629 2019-04-15 07:01:24 21.9 16 25.5
003AB629 2019-04-15 06:28:21 21.9 16 25.6
003AB629 2019-04-15 05:55:17 21.9 16 25.5
003AB629 2019-04-15 05:22:13 21.8 16 25.1
003AB629 2019-04-15 04:49:09 21.8 17 25.1
003AB629 2019-04-15 04:16:07 21.8 17 25.1
003AB629 2019-04-15 03:43:03 21.8 17 25
003AB629 2019-04-15 03:10:01 21.8 17 25.1
003AB629 2019-04-15 02:36:59 21.8 17 25.1
003AB629 2019-04-15 02:03:55 21.8 17 25.1
003AB629 2019-04-15 01:30:53 21.8 17 25.1
003AB629 2019-04-15 00:57:49 21.8 17 25.1
003AB629 2019-04-15 00:24:47 21.8 17 25
003AB629 2019-04-14 23:51:43 21.8 17 25
003AB629 2019-04-14 23:18:40 21.8 17 24.8
003AB629 2019-04-14 22:45:37 21.9 17 24.8
003AB629 2019-04-14 22:12:34 21.9 17 24.4
003AB629 2019-04-14 21:39:30 22 18 24.4
003AB629 2019-04-14 21:06:26 22 18 24.4
003AB629 2019-04-14 20:33:24 22 18 24.4
003AB629 2019-04-14 20:00:21 22.1 18 24.4
003AB629 2019-04-14 19:27:18 22 17 24.5
003AB629 2019-04-14 18:54:15 22 17 24.6
003AB629 2019-04-14 18:21:11 22 17 24.5
003AB629 2019-04-14 17:48:09 22 17 25.1
003AB629 2019-04-14 17:15:06 21.9 17 25.1
003AB629 2019-04-14 16:42:04 21.9 17 25.5
003AB629 2019-04-14 16:09:00 21.9 17 25.6
003AB629 2019-04-14 15:35:57 22 17 25.6
003AB629 2019-04-14 15:02:54 21.9 17 25.7
003AB629 2019-04-14 14:29:52 21.9 17 25.7
003AB629 2019-04-14 13:56:48 22 17 25.8
003AB629 2019-04-14 13:23:46 22 18 25.8
003AB629 2019-04-14 12:50:42 22 18 25.7
003AB629 2019-04-14 12:17:40 22 18 25.3
003AB629 2019-04-14 11:44:38 21.9 18 25.4
003AB629 2019-04-14 11:11:37 21.9 18 25.4
003AB629 2019-04-14 10:38:36 21.9 18 25.5
003AB629 2019-04-14 10:05:35 21.9 18 25.4
003AB629 2019-04-14 09:32:33 21.9 18 25.4
003AB629 2019-04-14 08:59:32 21.9 17 25.5
003AB629 2019-04-14 08:26:30 21.9 17 25.5
003AB629 2019-04-14 07:53:29 21.9 17 25.5
003AB629 2019-04-14 07:20:27 21.9 17 25.8
003AB629 2019-04-14 06:47:24 21.8 17 25.9
003AB629 2019-04-14 06:14:23 21.9 17 25.9
003AB629 2019-04-14 05:41:22 21.9 17 25.9
003AB629 2019-04-14 05:08:21 21.9 17 25.8
003AB629 2019-04-14 04:35:19 21.9 17 25.8
003AB629 2019-04-14 04:02:19 21.9 17 25.5
003AB629 2019-04-14 03:29:16 21.9 17 25.4
003AB629 2019-04-14 02:56:16 22 17 25
003AB629 2019-04-14 02:23:14 22 17 25
003AB629 2019-04-14 01:50:10 21.9 17 25
003AB629 2019-04-14 01:17:08 22 17 24.9
003AB629 2019-04-14 00:44:05 22 17 24.9
003AB629 2019-04-14 00:11:02 22 17 25.3
003AB629 2019-04-13 23:37:59 22 17 25.2
003AB629 2019-04-13 23:04:55 22 17 25.1
003AB629 2019-04-13 22:31:52 22.1 17 25.2
003AB629 2019-04-13 21:58:49 22.1 17 25.2
003AB629 2019-04-13 21:25:46 22.1 17 25.2
003AB629 2019-04-13 20:52:42 22.2 17 25.1
003AB629 2019-04-13 20:19:40 22.2 17 25.2
003AB629 2019-04-13 19:46:38 22.2 17 25.2
003AB629 2019-04-13 19:13:35 22.2 17 25.2
003AB629 2019-04-13 18:40:32 22.2 17 25.2
003AB629 2019-04-13 18:07:29 22.2 17 25.2
003AB629 2019-04-13 17:34:26 22.2 17 24.8
003AB629 2019-04-13 17:01:23 22.2 17 24.8
003AB629 2019-04-13 16:28:20 22.3 17 24.8
003AB629 2019-04-13 15:55:17 22.3 17 24.7
003AB629 2019-04-13 15:22:14 22.4 17 24.6
003AB629 2019-04-13 14:49:12 22.4 17 24.7
003AB629 2019-04-13 14:16:09 22.4 17 24.8
003AB629 2019-04-13 13:43:07 22.4 17 24.8
003AB629 2019-04-13 13:10:05 22.4 17 24.8
003AB629 2019-04-13 12:37:04 22.4 17 24.7
003AB629 2019-04-13 12:04:03 22.4 17 24.7
003AB629 2019-04-13 11:31:00 22.4 17 24.7
003AB629 2019-04-13 10:57:57 22.4 17 24.8
003AB629 2019-04-13 10:24:53 22.4 17 24.3
003AB629 2019-04-13 09:51:50 22.4 17 24.3
003AB629 2019-04-13 09:18:47 22.4 16 24.3
003AB629 2019-04-13 08:45:44 22.4 16 24.3
003AB629 2019-04-13 08:12:42 22.4 16 24.2
003AB629 2019-04-13 07:39:39 22.3 16 24.1
003AB629 2019-04-13 07:06:38 22.4 16 24.1
003AB629 2019-04-13 06:33:35 22.4 16 24
003AB629 2019-04-13 06:00:32 22.4 16 24
003AB629 2019-04-13 05:27:30 22.4 16 24
003AB629 2019-04-13 04:54:27 22.4 16 24
003AB629 2019-04-13 04:21:24 22.4 16 23.9
003AB629 2019-04-13 03:48:21 22.4 16 24.4
003AB629 2019-04-13 03:15:18 22.4 16 24.4
003AB629 2019-04-13 02:42:16 22.4 16 24.3
003AB629 2019-04-13 02:09:13 22.4 16 24.3
003AB629 2019-04-13 01:36:10 22.5 17 24.3
003AB629 2019-04-13 01:03:08 22.6 17 24.3
003AB629 2019-04-13 00:30:05 22.6 17 24.2
003AB629 2019-04-12 23:57:02 22.6 17 24.2
003AB629 2019-04-12 23:24:00 22.6 17 24.3
003AB629 2019-04-12 22:50:56 22.6 17 24.3
003AB629 2019-04-12 22:17:53 22.7 17 24.3
003AB629 2019-04-12 21:44:50 22.8 17 24.3
003AB629 2019-04-12 21:11:47 22.8 17 24.2
003AB629 2019-04-12 20:38:44 22.8 17 24.3
003AB629 2019-04-12 20:05:40 22.8 16 24.3
003AB629 2019-04-12 19:32:37 22.8 16 24.4
003AB629 2019-04-12 18:59:35 22.9 16 24.5
003AB629 2019-04-12 18:26:33 23 15 24.7
003AB629 2019-04-12 17:53:29 23 16 24.8
003AB629 2019-04-12 17:20:26 23.2 16 25
003AB629 2019-04-12 16:47:23 23.2 16 25.1
003AB629 2019-04-12 16:14:21 23.2 16 25.1
003AB629 2019-04-12 15:41:17 23 17 25.4
003AB629 2019-04-12 15:08:13 22.9 17 25.8
003AB629 2019-04-12 14:35:10 22.6 17 26.4
003AB629 2019-04-12 14:02:07 22.4 17 21.9
003AB629 2019-04-12 13:29:03 21.7 17 18
003AB629 2019-04-12 12:55:59 20.5 24 0